Weather History for Harbor Springs, MI

Change the Weather History Date:

Thursday, March 14, 2013

  Actual Average (KPLN) Record (KPLN)
Temperature  
Mean Temperature 22 °F -  
Max Temperature 31 °F 37 °F 73 °F (2012)
Min Temperature 12 °F 17 °F -12 °F (1963)
Degree Days  
Heating Degree Days 44    
Moisture  
Dew Point 18 °F    
Average Humidity 74    
Maximum Humidity 91    
Minimum Humidity 57    
Precipitation  
Precipitation 0.00 in - - ()
Sea Level Pressure  
Sea Level Pressure 30.14 in    
Wind  
Wind Speed 5 mph (WSW)    
Max Wind Speed 10 mph    
Max Gust Speed -    
Visibility 10 miles    
Events Snow    
Averages and records for this station are not official NWS values.
T = Trace of Precipitation, MM = Missing Value Source: NWS Daily Summary

Daily Weather History Graph

Daily Weather History Graph

Search for Another Location

Airport:

Trip Planner

Search our weather history database for the weather conditions in past years. The results will help you decide how hot, cold, wet, or windy it might be!

Date:

Astronomy

Mar. 14, 2013 Rise Set
Actual Time 7:53 AM EDT 7:44 PM EDT
Civil Twilight 7:24 AM EDT 8:14 PM EDT
Nautical Twilight 6:49 AM EDT 8:48 PM EDT
Astronomical Twilight 6:14 AM EDT 9:23 PM EDT
Moon 8:56 AM EDT (3/14) 11:12 PM EDT (3/14)
Length of Visible Light 12h 49m
Length of Day
11h 51m
Waxing Crescent, 9% of the Moon is Illuminated
Mar 14
Waxing Crescent
Mar 19
First Quarter
Mar 27
Full
Apr 3
Last Quarter
Apr 10
New

Hourly Weather History & Observations

Time (EDT) Temp. Windchill Dew Point Humidity Pressure Visibility Wind Dir Wind Speed Gust Speed Precip Events Conditions
12:14 AM 25.5 °F 17.8 °F 19.0 °F 76% 30.16 in 10.0 mi West 6.9 mph - N/A Snow Light Snow
12:35 AM 25.5 °F 17.8 °F 18.9 °F 76% 30.16 in 10.0 mi WNW 6.9 mph - N/A Snow Light Snow
12:54 AM 25.5 °F 17.8 °F 19.2 °F 77% 30.16 in 10.0 mi WNW 6.9 mph - N/A   Overcast
1:14 AM 25.5 °F 17.8 °F 19.4 °F 78% 30.16 in 10.0 mi West 6.9 mph - N/A Snow Light Snow
1:35 AM 25.5 °F 19.9 °F 19.8 °F 79% 30.16 in 10.0 mi West 4.6 mph - N/A Snow Light Snow
1:54 AM 25.5 °F 17.8 °F 19.9 °F 79% 30.16 in 10.0 mi West 6.9 mph - N/A Snow Light Snow
2:14 AM 25.7 °F 17.1 °F 19.8 °F 78% 30.17 in 10.0 mi WNW 8.1 mph - N/A   Overcast
3:14 AM 25.5 °F 19.9 °F 18.5 °F 75% 30.17 in 10.0 mi West 4.6 mph - N/A   Mostly Cloudy
3:35 AM 24.8 °F 17.9 °F 18.5 °F 77% 30.17 in 10.0 mi West 5.8 mph - N/A   Scattered Clouds
3:54 AM 24.4 °F 20.1 °F 18.0 °F 76% 30.17 in 10.0 mi West 3.5 mph - N/A   Clear
4:14 AM 23.2 °F 18.7 °F 17.1 °F 77% 30.17 in 10.0 mi West 3.5 mph - N/A   Scattered Clouds
4:35 AM 23.0 °F - 17.2 °F 79% 30.16 in 10.0 mi Calm Calm - N/A   Mostly Cloudy
4:54 AM 23.0 °F 18.4 °F 17.2 °F 79% 30.16 in 10.0 mi West 3.5 mph - N/A   Scattered Clouds
5:14 AM 22.3 °F 17.6 °F 16.3 °F 78% 30.16 in 10.0 mi West 3.5 mph - N/A   Clear
5:35 AM 21.2 °F 14.9 °F 16.0 °F 80% 30.16 in 10.0 mi WNW 4.6 mph - N/A Snow Light Snow
5:54 AM 21.4 °F - 16.7 °F 82% 30.17 in 10.0 mi Calm Calm - N/A Snow Light Snow
6:14 AM 19.2 °F - 15.4 °F 85% 30.17 in 10.0 mi Calm Calm - N/A   Clear
6:35 AM 18.1 °F - 15.3 °F 88% 30.18 in 10.0 mi Calm Calm - N/A   Clear
6:54 AM 16.0 °F - 13.3 °F 89% 30.18 in 10.0 mi Calm Calm - N/A   Clear
7:14 AM 15.6 °F - 13.3 °F 90% 30.19 in 10.0 mi Calm Calm - N/A   Clear
7:34 AM 13.6 °F - 11.5 °F 91% 30.19 in 10.0 mi Calm Calm - N/A   Clear
7:54 AM 12.9 °F - 10.8 °F 91% 30.19 in 10.0 mi Calm Calm - N/A   Clear
8:14 AM 12.9 °F - 10.4 °F 90% 30.19 in 10.0 mi Calm Calm - N/A   Clear
8:34 AM 13.1 °F 7.1 °F 10.6 °F 90% 30.19 in 10.0 mi North 3.5 mph - N/A   Clear
8:54 AM 15.8 °F 10.2 °F 12.7 °F 88% 30.20 in 10.0 mi North 3.5 mph - N/A   Clear
9:14 AM 18.3 °F 11.5 °F 14.4 °F 85% 30.21 in 10.0 mi North 4.6 mph - N/A   Clear
9:34 AM 20.7 °F 14.2 °F 11.8 °F 69% 30.21 in 10.0 mi North 4.6 mph - N/A   Clear
9:54 AM 21.4 °F - 10.6 °F 63% 30.21 in 10.0 mi Calm Calm - N/A   Clear
10:14 AM 23.0 °F 18.4 °F 10.6 °F 59% 30.21 in 10.0 mi NNW 3.5 mph - N/A   Clear
10:34 AM 24.3 °F - 11.1 °F 57% 30.21 in 10.0 mi Calm Calm - N/A   Clear
10:54 AM 25.7 °F 20.1 °F 13.1 °F 59% 30.21 in 10.0 mi West 4.6 mph - N/A   Clear
11:14 AM 26.1 °F 20.5 °F 13.1 °F 58% 30.21 in 10.0 mi South 4.6 mph - N/A   Clear
11:34 AM 26.1 °F 20.5 °F 13.5 °F 59% 30.21 in 10.0 mi SW 4.6 mph - N/A   Clear
11:54 AM 26.2 °F 19.6 °F 14.9 °F 62% 30.21 in 10.0 mi SSW 5.8 mph - N/A   Clear
12:15 PM 28.0 °F 19.3 °F 18.5 °F 67% 30.19 in 10.0 mi SW 9.2 mph - N/A   Clear
12:34 PM 28.0 °F 19.3 °F 18.7 °F 68% 30.19 in 10.0 mi SW 9.2 mph - N/A   Clear
12:54 PM 28.0 °F 18.6 °F 19.0 °F 69% 30.19 in 10.0 mi SW 10.4 mph - N/A   Scattered Clouds
1:15 PM 28.0 °F 20.8 °F 19.4 °F 70% 30.19 in 10.0 mi SW 6.9 mph - N/A   Clear
1:34 PM 28.0 °F 20.0 °F 19.0 °F 69% 30.18 in 10.0 mi SW 8.1 mph - N/A   Clear
1:54 PM 28.0 °F 20.0 °F 19.2 °F 70% 30.18 in 10.0 mi SW 8.1 mph - N/A   Clear
2:15 PM 28.9 °F 21.1 °F 19.9 °F 69% 30.18 in 10.0 mi WSW 8.1 mph - N/A   Clear
2:34 PM 29.1 °F 21.3 °F 19.9 °F 69% 30.17 in 10.0 mi WSW 8.1 mph - N/A   Clear
2:54 PM 29.1 °F 20.6 °F 20.1 °F 69% 30.16 in 10.0 mi WSW 9.2 mph - N/A   Clear
3:15 PM 30.6 °F 22.4 °F 20.3 °F 66% 30.16 in 10.0 mi West 9.2 mph - N/A   Clear
3:34 PM 30.6 °F 22.4 °F 19.4 °F 63% 30.14 in 10.0 mi WSW 9.2 mph - N/A   Clear
3:54 PM 30.7 °F 24.1 °F 19.8 °F 64% 30.14 in 10.0 mi West 6.9 mph - N/A   Clear
4:14 PM 30.6 °F 23.1 °F 19.6 °F 64% 30.13 in 10.0 mi WSW 8.1 mph - N/A   Clear
4:34 PM 30.6 °F 22.4 °F 20.8 °F 67% 30.12 in 10.0 mi West 9.2 mph - N/A   Clear
4:54 PM 30.6 °F 22.4 °F 20.3 °F 66% 30.12 in 10.0 mi West 9.2 mph - N/A   Clear
5:14 PM 31.1 °F 23.1 °F 20.7 °F 65% 30.12 in 10.0 mi West 9.2 mph - N/A   Clear
5:34 PM 30.6 °F 23.1 °F 20.8 °F 67% 30.12 in 10.0 mi West 8.1 mph - N/A   Clear
5:54 PM 30.7 °F 24.1 °F 21.2 °F 68% 30.11 in 10.0 mi WSW 6.9 mph - N/A   Clear
6:14 PM 30.6 °F 23.1 °F 21.6 °F 69% 30.09 in 10.0 mi WSW 8.1 mph - N/A   Clear
6:34 PM 30.6 °F 23.8 °F 21.6 °F 69% 30.08 in 10.0 mi WSW 6.9 mph - N/A   Clear
6:55 PM 30.4 °F 24.5 °F 21.9 °F 71% 30.08 in 10.0 mi West 5.8 mph - N/A   Clear
7:14 PM 29.1 °F 22.1 °F 21.6 °F 73% 30.07 in 10.0 mi WSW 6.9 mph - N/A   Clear
7:34 PM 28.2 °F 21.0 °F 21.4 °F 76% 30.06 in 10.0 mi WSW 6.9 mph - N/A   Clear
7:55 PM 28.0 °F 20.0 °F 20.8 °F 74% 30.05 in 10.0 mi SW 8.1 mph - N/A   Clear
8:14 PM 28.0 °F 20.8 °F 21.2 °F 76% 30.03 in 10.0 mi SSW 6.9 mph - N/A   Clear
8:34 PM 28.0 °F 24.2 °F 22.3 °F 79% 30.02 in 10.0 mi SW 3.5 mph - N/A   Clear
8:55 PM 28.0 °F 20.8 °F 22.8 °F 81% 30.01 in 10.0 mi SW 6.9 mph - N/A   Clear
9:14 PM 28.0 °F 22.8 °F 22.3 °F 79% 30.00 in 10.0 mi SW 4.6 mph - N/A   Scattered Clouds
9:34 PM 28.0 °F - 22.1 °F 78% 29.99 in 10.0 mi Calm Calm - N/A   Scattered Clouds
9:55 PM 25.5 °F 21.3 °F 20.3 °F 81% 29.99 in 10.0 mi SW 3.5 mph - N/A   Clear
10:14 PM 26.1 °F 21.9 °F 20.3 °F 79% 29.98 in 10.0 mi WSW 3.5 mph - N/A   Scattered Clouds
10:34 PM 28.0 °F 22.8 °F 21.6 °F 77% 29.99 in 10.0 mi WSW 4.6 mph - N/A   Mostly Cloudy
10:55 PM 28.0 °F 21.7 °F 21.9 °F 78% 29.98 in 10.0 mi WSW 5.8 mph - N/A   Mostly Cloudy
11:14 PM 28.0 °F 21.7 °F 21.2 °F 76% 29.98 in 10.0 mi SW 5.8 mph - N/A   Overcast
11:34 PM 28.0 °F 21.7 °F 20.3 °F 73% 29.96 in 10.0 mi SW 5.8 mph - N/A   Overcast